Вернуться в каталог

FENGYUN 1C DEB

АктивенSSO
NORAD 32353·DEBRIS·🇨🇳 China

Запущен May 10, 1999 с Taiyuan Satellite Launch Center

Loading…

Ближайшие Пролёты (ближайшие 24 часа)

TLE

УстаревающийSource: Space-Track

Эпоха: Sep 4, 2026, 18:40 UTC

1 32353U 99025CYW 26247.77787997  .00002432  00000-0  14209-2 0  9992
2 32353  98.9357  65.0332 0122778 175.0760 185.1647 14.05603854669291

Отслеживайте FENGYUN 1C DEB в реальном времени с AllMySat

Download on the App Store